Wetterdaten: aktuell Freitag, 22.09.2017 13:39
Datum Zeit Temperatur Bodentemp. Luftfeuchte Luftdruck Regen Wind Richtung Richtung Sonnenschein
22.09.2017 13:39 18,6 C 11,2 C 51 % 1020 hPa 0,0 l/m 6,8 km/h (2 Bft) S-SW22.5 200 6 min
22.09.2017 13:33 18,5 C 11,2 C 52 % 1020 hPa 0,0 l/m 4,5 km/h (1 Bft) S22.5 190 4 min
22.09.2017 13:29 18,4 C 11,2 C 52 % 1020 hPa 0,0 l/m 5,4 km/h (2 Bft) S-SW22.5 200 5 min
22.09.2017 13:24 18,2 C 11,3 C 48 % 1020 hPa 0,0 l/m 8,9 km/h (2 Bft) W-SW67.5 240 5 min
22.09.2017 13:19 18,0 C 11,1 C 49 % 1020 hPa 0,0 l/m 5,2 km/h (1 Bft) W-NW67.5 295 5 min
22.09.2017 13:14 18,1 C 11,2 C 48 % 1020 hPa 0,0 l/m 0,0 km/h (0 Bft) W-NW67.5 285 5 min
22.09.2017 13:09 17,8 C 11,4 C 47 % 1020 hPa 0,0 l/m 0,0 km/h (0 Bft) N-NW 340 5 min
22.09.2017 13:04 17,6 C 11,3 C 48 % 1020 hPa 0,0 l/m 4,0 km/h (1 Bft) N-NW67.5 340 5 min
22.09.2017 12:59 17,5 C 11,4 C 49 % 1020 hPa 0,0 l/m 0,0 km/h (0 Bft) N 350 5 min
22.09.2017 12:54 17,5 C 11,4 C 51 % 1020 hPa 0,0 l/m 0,7 km/h (0 Bft) N 350 5 min
22.09.2017 12:49 17,4 C 11,4 C 52 % 1020 hPa 0,0 l/m 3,7 km/h (1 Bft) N-NW 335 5 min
22.09.2017 12:44 17,3 C 11,2 C 53 % 1020 hPa 0,0 l/m 0,0 km/h (0 Bft) N 350 6 min
22.09.2017 12:38 17,4 C 11,2 C 56 % 1020 hPa 0,0 l/m 0,0 km/h (0 Bft) N 350 4 min
22.09.2017 12:34 17,3 C 10,9 C 56 % 1020 hPa 0,0 l/m 0,0 km/h (0 Bft) O-NO45 60 5 min
22.09.2017 12:29 17,1 C 10,7 C 59 % 1020 hPa 0,0 l/m 0,0 km/h (0 Bft) O-NO 75 5 min
22.09.2017 12:24 16,9 C 10,8 C 58 % 1020 hPa 0,0 l/m 0,0 km/h (0 Bft) O22.5 80 6 min
22.09.2017 12:18 16,7 C 10,6 C 57 % 1020 hPa 0,0 l/m 0,0 km/h (0 Bft) NO 45 4 min
22.09.2017 12:14 16,8 C 10,6 C 60 % 1020 hPa 0,0 l/m 0,0 km/h (0 Bft) NO 35 5 min
22.09.2017 12:09 16,5 C 10,4 C 61 % 1020 hPa 0,0 l/m 0,0 km/h (0 Bft) NO22.5 45 5 min
22.09.2017 12:04 16,6 C 10,3 C 65 % 1020 hPa 0,0 l/m 0,0 km/h (0 Bft) O45 80 5 min
22.09.2017 11:59 16,2 C 10,2 C 66 % 1020 hPa 0,0 l/m 0,0 km/h (0 Bft) O-SO22.5 105 5 min
22.09.2017 11:54 16,2 C 10,2 C 66 % 1020 hPa 0,0 l/m 0,0 km/h (0 Bft) O 85 5 min
22.09.2017 11:49 15,9 C 10,3 C 67 % 1020 hPa 0,0 l/m 0,0 km/h (0 Bft) O 85 6 min
22.09.2017 11:43 15,9 C 10,1 C 69 % 1020 hPa 0,0 l/m 0,0 km/h (0 Bft) O 80 4 min
22.09.2017 11:39 15,5 C 10,1 C 69 % 1020 hPa 0,0 l/m 0,0 km/h (0 Bft) O 80 5 min
22.09.2017 11:34 15,5 C 10,2 C 70 % 1020 hPa 0,0 l/m 0,0 km/h (0 Bft) O 90 5 min
22.09.2017 11:29 15,5 C 10,2 C 72 % 1020 hPa 0,0 l/m 0,0 km/h (0 Bft) O 90 6 min
22.09.2017 11:23 15,2 C 10,1 C 71 % 1020 hPa 0,0 l/m 0,0 km/h (0 Bft) O-NO 70 4 min
22.09.2017 11:19 15,0 C 10,2 C 74 % 1020 hPa 0,0 l/m 0,0 km/h (0 Bft) O-NO 70 5 min
22.09.2017 11:14 15,2 C 10,2 C 75 % 1020 hPa 0,0 l/m 0,0 km/h (0 Bft) O 80 5 min
22.09.2017 11:09 15,2 C 10,1 C 75 % 1020 hPa 0,0 l/m 0,0 km/h (0 Bft) N-NO 20 5 min
22.09.2017 11:04 14,8 C 10,2 C 77 % 1020 hPa 0,0 l/m 0,0 km/h (0 Bft) NO22.5 45 5 min
22.09.2017 10:59 14,9 C 9,9 C 81 % 1020 hPa 0,0 l/m 0,0 km/h (0 Bft) NO 55 5 min
22.09.2017 10:54 14,6 C 9,9 C 83 % 1020 hPa 0,0 l/m 0,0 km/h (0 Bft) NO 55 5 min
22.09.2017 10:49 14,4 C 9,8 C 87 % 1020 hPa 0,0 l/m 0,0 km/h (0 Bft) O 100 5 min
22.09.2017 10:44 14,0 C 9,7 C 91 % 1020 hPa 0,0 l/m 0,0 km/h (0 Bft) O 100 5 min
22.09.2017 10:39 13,8 C 9,6 C 93 % 1020 hPa 0,0 l/m 0,0 km/h (0 Bft) O 100 5 min
22.09.2017 10:34 13,7 C 9,5 C 96 % 1020 hPa 0,0 l/m 0,0 km/h (0 Bft) O 100 6 min
22.09.2017 10:28 13,4 C 9,5 C 98 % 1020 hPa 0,0 l/m 0,0 km/h (0 Bft) O 100 4 min
22.09.2017 10:24 13,5 C 9,4 C 100 % 1020 hPa 0,0 l/m 0,0 km/h (0 Bft) O-SO 105 5 min
22.09.2017 10:19 13,2 C 9,1 C 100 % 1020 hPa 0,0 l/m 0,0 km/h (0 Bft) O-SO 105 5 min
22.09.2017 10:14 13,0 C 9,3 C 100 % 1020 hPa 0,0 l/m 0,0 km/h (0 Bft) O-SO 105 5 min
22.09.2017 10:09 12,9 C 9,3 C 100 % 1020 hPa 0,0 l/m 0,0 km/h (0 Bft) O-SO 110 5 min
22.09.2017 10:04 12,7 C 9,1 C 100 % 1020 hPa 0,0 l/m 0,0 km/h (0 Bft) O-SO 105 5 min
22.09.2017 09:59 12,2 C 9,0 C 100 % 1020 hPa 0,0 l/m 0,0 km/h (0 Bft) O-SO 110 5 min
22.09.2017 09:54 12,1 C 9,1 C 100 % 1020 hPa 0,0 l/m 0,0 km/h (0 Bft) O-SO 105 0 min
22.09.2017 09:49 11,9 C 8,9 C 100 % 1020 hPa 0,0 l/m 0,0 km/h (0 Bft) O-SO 110 0 min
22.09.2017 09:44 11,6 C 8,7 C 100 % 1020 hPa 0,0 l/m 0,0 km/h (0 Bft) O-SO 110 0 min
22.09.2017 09:39 11,4 C 8,8 C 100 % 1020 hPa 0,0 l/m 0,0 km/h (0 Bft) O-SO 110 0 min
_ Min-Zeit 05:34 07:03 16:19 05:48 - 14:19 - - -
Minimum _ 6,5 C 5,4 C 45 % 1019 hPa - 0,0 km/h (0 Bft) - - -
_ Max-Zeit 15:04 16:09 02:49 14:04 14:04 17:19 - - 14:39
Maximum _ 19,6 C 12,8 C 100 % 1020 hPa 0,0 l/m 13,9 km/h
SO (3 Bft)
- - 6 min
Durchschnitt _ 12,6 C 8,9 C 78 % 1020 hPa #0,0 l/m 1,9 km/h (1 Bft) O - #4:00 h